Temperature
4 3 2 2 2 1 0 -0 -1 -0 1 2 2 2 1 1 1 1 2 2 2 2 2 1 1 1 1 1 1 1 1 2 2 2 2 2 2 2
3 2 2 1 1 0 -0 -1 -1 -2 -1 0 1 1 0 -0 -0 -0 0 0 1 1 1 0 -0 -0 -0 -0 -0 0 0 1 1 1 1 1 1 1
1 1 1 0 -0 -1 -1 -1 -1 -2 -2 -1 -0 -0 -1 -1 -1 -1 -1 -1 -1 -0 -0 -0 -1 -1 -1 -1 -1 -1 -0 -0 -0 0 0 0 0 0
0 -0 -0 -1 -1 -1 -1 -2 -2 -2 -2 -2 -1 -1 -1 -2 -2 -2 -2 -2 -2 -1 -1 -1 -2 -2 -2 -2 -2 -1 -1 -1 -1 -1 -0 -0 -0 -0
-1 -1 -1 -2 -2 -2 -2 -2 -2 -2 -2 -2 -2 -2 -2 -2 -3 -3 -3 -3 -3 -2 -2 -2 -2 -2 -2 -2 -2 -2 -2 -2 -2 -1 -1 -1 -1 -1
-1 -2 -2 -2 -2 -3 -3 -3 -3 -3 -3 -3 -3 -3 -3 -3 -3 -3 -3 -3 -3 -3 -3 -3 -3 -3 -3 -3 -3 -3 -2 -2 -2 -2 -2 -2 -2 -2
-2 -3 -3 -3 -3 -3 -3 -3 -3 -3 -3 -3 -3 -3 -3 -3 -3 -4 -4 -4 -4 -4 -4 -4 -3 -4 -4 -3 -3 -3 -3 -3 -3 -2 -2 -2 -2 -2
-3 -3 -4 -4 -3 -3 -3 -3 -3 -3 -3 -3 -3 -3 -3 -3 -3 -4 -4 -4 -4 -4 -4 -4 -4 -4 -4 -4 -4 -4 -4 -3 -3 -3 -3 -3 -3 -3
-4 -4 -4 -4 -4 -4 -4 -4 -3 -3 -3 -3 -3 -3 -3 -3 -4 -4 -4 -4 -4 -4 -5 -5 -5 -5 -5 -5 -5 -4 -4 -4 -4 -4 -3 -3 -3 -3
-4 -4 -4 -4 -4 -4 -4 -4 -4 -4 -4 -4 -3 -3 -3 -4 -4 -4 -4 -4 -4 -5 -5 -5 -5 -5 -5 -5 -5 -5 -5 -5 -5 -5 -4 -4 -4 -4
-5 -4 -4 -4 -4 -4 -4 -4 -4 -4 -4 -4 -4 -4 -4 -4 -4 -4 -4 -4 -5 -5 -5 -6 -6 -6 -6 -6 -5 -5 -5 -5 -5 -5 -5 -5 -5 -5
-5 -4 -4 -4 -4 -4 -4 -4 -4 -4 -4 -4 -4 -4 -4 -4 -4 -4 -4 -4 -5 -5 -5 -6 -6 -6 -6 -6 -6 -5 -5 -5 -5 -5 -5 -5 -5 -5
-5 -4 -4 -4 -4 -4 -4 -4 -4 -3 -4 -4 -4 -4 -4 -4 -4 -4 -4 -5 -5 -5 -5 -6 -6 -6 -6 -6 -6 -6 -5 -5 -6 -6 -5 -5 -5 -5
-5 -5 -5 -4 -4 -4 -4 -4 -4 -4 -4 -4 -4 -4 -4 -4 -4 -5 -5 -5 -5 -5 -5 -6 -6 -6 -6 -7 -6 -6 -6 -6 -6 -6 -6 -6 -6 -6
-5 -5 -5 -4 -4 -4 -4 -4 -4 -4 -4 -4 -4 -5 -5 -5 -5 -5 -5 -5 -6 -6 -6 -6 -6 -6 -7 -7 -7 -7 -7 -7 -6 -6 -6 -6 -6 -6
-5 -5 -5 -4 -4 -4 -4 -4 -5 -5 -5 -5 -5 -5 -5 -5 -5 -6 -6 -6 -6 -6 -6 -6 -7 -7 -7 -7 -7 -7 -7 -7 -7 -7 -7 -7 -7 -7
-5 -5 -5 -5 -5 -5 -5 -5 -5 -5 -5 -5 -5 -6 -6 -6 -6 -6 -6 -6 -6 -6 -6 -6 -7 -7 -7 -7 -7 -7 -7 -7 -7 -7 -8 -8 -8 -7
-5 -5 -5 -6 -6 -6 -6 -6 -6 -6 -6 -6 -6 -6 -6 -6 -6 -6 -6 -6 -7 -7 -7 -7 -7 -8 -8 -8 -8 -8 -8 -8 -8 -8 -8 -8 -8 -8
-6 -6 -6 -6 -6 -6 -6 -6 -6 -6 -6 -6 -6 -6 -6 -6 -7 -7 -7 -7 -7 -7 -7 -7 -8 -8 -8 -8 -8 -8 -8 -8 -8 -8 -8 -9 -9 -8
-7 -7 -7 -7 -7 -6 -6 -6 -6 -6 -6 -6 -6 -6 -7 -7 -7 -7 -7 -7 -7 -7 -8 -8 -8 -8 -8 -8 -8 -8 -8 -9 -9 -9 -9 -9 -9 -9
-7 -7 -7 -7 -7 -7 -7 -7 -7 -6 -6 -7 -7 -7 -7 -7 -7 -7 -7 -7 -8 -8 -8 -8 -8 -8 -9 -9 -10 -9 -9 -9 -9 -9 -10 -10 -10 -10
-7 -7 -7 -7 -7 -7 -7 -7 -7 -7 -7 -7 -7 -7 -7 -7 -7 -7 -7 -8 -8 -8 -8 -8 -9 -9 -10 -10 -10 -10 -10 -9 -9 -10 -10 -10 -10 -10
-8 -8 -7 -7 -7 -7 -7 -7 -7 -7 -7 -7 -7 -7 -7 -7 -8 -8 -8 -8 -8 -9 -9 -9 -9 -10 -10 -10 -10 -10 -10 -10 -10 -11 -10 -10 -10 -10
Wind_Speed
17 18 17 16 16 16 16 16 17 20 22 21 17 17 15 16 19 20 22 25 28 30 31 32 33 34 34 35 36 36 36 35 33 32 31 31 30 29
15 18 18 16 16 15 16 16 17 18 21 19 17 16 14 14 19 21 22 25 27 29 30 30 31 32 33 34 34 35 35 35 34 34 33 32 31 31
18 19 20 20 17 16 16 16 16 17 20 23 18 17 19 18 17 17 19 19 19 26 28 29 30 31 31 32 33 34 35 35 35 34 34 34 33 32
20 20 21 17 20 18 16 18 17 18 19 24 22 18 19 18 17 18 16 16 17 22 26 27 28 29 30 31 32 33 33 34 34 34 34 34 34 33
20 20 20 20 21 18 18 18 16 16 17 19 22 18 15 14 15 17 19 17 17 20 24 26 28 29 29 30 30 31 31 32 33 33 34 33 33 33
20 20 20 20 20 20 18 19 17 17 16 17 19 17 15 14 12 14 15 15 15 15 18 19 22 26 28 29 30 30 31 31 32 33 33 32 32 32
20 20 21 23 25 21 17 15 15 15 15 16 17 16 15 12 12 12 14 14 15 14 14 14 14 15 17 24 28 30 30 30 31 31 32 32 32 32
18 19 20 21 24 28 30 28 24 17 16 16 16 17 16 15 13 12 13 13 13 10 13 14 12 13 13 13 19 25 27 28 29 29 30 30 31 31
19 18 16 16 21 16 21 26 26 29 27 19 18 19 18 15 14 15 15 14 15 12 9 12 12 13 12 14 20 22 24 26 26 27 27 27 28 29
19 19 19 18 17 17 14 15 17 18 20 17 14 15 16 15 12 13 14 14 13 12 10 10 11 12 11 11 18 22 24 25 25 25 25 26 26 27
18 18 19 19 23 25 18 16 17 15 20 25 25 24 25 25 19 11 11 11 12 11 11 9 9 10 10 11 13 20 22 24 25 26 26 26 26 25
16 16 21 22 24 25 18 16 17 15 13 14 16 18 17 18 21 13 10 11 9 9 10 10 9 7 6 9 11 11 14 20 24 25 25 26 26 18
14 14 13 22 25 26 24 17 19 18 13 13 12 11 11 10 10 10 9 10 11 9 8 10 9 9 7 5 7 10 10 11 13 16 21 25 26 22
15 14 15 24 26 27 22 20 23 20 11 10 10 9 9 9 9 9 9 10 10 10 8 10 9 9 9 9 7 7 9 10 11 11 12 17 21 25
16 22 25 27 25 19 19 22 18 11 9 10 10 9 8 7 7 6 7 8 9 9 9 11 11 9 10 10 9 9 8 9 11 11 12 12 13 14
16 18 23 23 18 17 17 13 9 9 9 9 8 8 7 6 7 7 7 7 7 8 10 12 13 12 11 12 11 11 10 8 9 11 12 12 13 13
17 13 11 11 10 9 9 9 8 7 8 7 7 7 7 7 7 6 6 7 8 8 8 8 10 11 12 11 11 12 12 12 12 12 12 13 14 15
18 12 11 11 11 10 9 9 8 7 7 7 7 7 7 7 6 6 6 7 8 8 8 7 7 7 7 9 14 14 13 13 13 13 13 14 16 15
13 11 11 11 10 10 9 8 8 7 6 6 7 7 6 6 6 6 7 8 8 8 8 7 8 9 11 12 11 17 15 13 13 13 14 15 17 16
9 10 10 10 10 9 9 8 7 6 6 6 6 6 6 6 7 7 7 8 8 8 8 8 9 11 13 12 10 10 17 15 13 14 14 15 16 19
10 10 10 10 10 9 8 8 7 6 6 6 6 6 6 6 7 7 7 9 9 9 10 10 10 11 9 8 10 11 12 18 19 16 15 15 16 17
11 11 10 10 9 9 8 7 7 6 6 6 6 6 6 6 7 8 8 8 8 9 10 8 6 7 9 12 14 15 14 14 17 25 27 24 17 17
11 11 10 10 9 8 7 7 8 7 6 6 6 6 6 6 6 7 8 8 8 9 9 9 8 9 11 12 14 14 17 16 14 15 17 24 31 34
Wind_Direction
262 261 258 258 256 255 255 255 261 274 276 273 269 259 251 250 250 250 251 251 250 249 249 248 246 245 244 244 243 243 243 242 241 239 239 239 240 242
267 265 263 261 259 256 254 254 252 258 271 273 272 268 261 254 254 255 256 256 254 252 251 250 248 246 245 244 243 242 241 241 241 240 239 239 239 240
271 268 266 265 264 262 258 255 253 252 262 272 271 268 263 257 255 254 256 257 256 252 251 251 250 248 246 244 243 242 240 239 239 239 239 239 239 239
276 274 271 270 266 264 261 258 256 253 255 267 272 270 265 260 255 254 254 255 256 256 253 252 251 250 248 246 244 242 241 239 238 238 238 238 239 239
280 277 276 273 270 266 263 261 259 258 255 261 269 271 268 261 257 254 253 254 256 256 254 252 251 250 249 247 246 244 242 240 239 239 239 239 239 239
278 276 274 271 269 268 267 264 263 261 260 260 266 269 267 261 253 253 254 251 253 254 253 251 250 249 248 247 246 245 243 240 238 238 238 238 238 239
276 274 271 269 266 266 264 262 258 258 259 260 262 265 263 256 248 245 249 254 254 250 251 249 247 245 243 244 244 244 243 241 239 239 238 237 237 238
279 278 275 273 271 270 270 268 263 258 256 257 261 260 261 256 250 244 244 247 252 240 240 246 241 243 241 240 239 240 241 241 241 241 240 240 239 237
285 284 282 278 277 271 271 273 274 272 266 262 262 261 263 258 253 247 240 239 243 241 237 246 241 242 241 239 241 240 240 241 241 241 240 240 240 238
285 284 283 281 277 274 268 266 266 266 266 268 262 262 261 261 252 247 247 246 247 243 229 241 241 241 239 237 238 237 239 240 240 240 241 241 241 241
286 283 282 281 280 281 278 272 271 268 267 264 262 262 260 258 251 244 238 237 242 236 219 225 240 240 239 237 235 234 235 236 237 238 239 239 239 239
288 284 282 281 282 282 279 275 273 273 268 265 264 264 265 265 262 248 235 235 237 234 211 209 225 223 238 234 230 227 229 233 235 236 236 236 236 236
292 289 285 285 286 286 284 278 275 275 270 266 263 257 251 247 247 243 231 231 234 231 207 195 213 213 222 233 223 222 222 225 228 233 236 237 236 234
295 293 289 289 289 288 287 282 283 283 278 272 268 260 252 245 238 232 229 228 228 231 216 201 210 214 219 228 232 221 219 222 226 229 230 232 235 237
292 291 292 294 294 292 286 285 286 282 273 269 268 264 257 248 237 231 227 228 229 226 218 210 215 219 222 230 235 232 229 227 225 229 231 231 230 232
295 293 294 293 288 284 284 284 279 273 269 267 267 267 262 251 238 231 229 222 228 228 218 215 218 222 228 232 237 240 235 232 225 227 231 234 234 233
301 297 294 293 289 286 283 278 275 271 270 265 262 262 258 251 242 227 224 222 227 229 218 212 217 224 232 236 237 239 241 241 239 236 235 239 239 237
305 299 298 297 295 293 290 286 278 269 266 263 261 259 255 249 242 227 222 226 231 232 227 212 206 214 226 238 233 242 243 243 242 239 238 242 246 242
303 298 297 297 295 293 290 286 281 275 270 263 260 257 253 249 244 236 229 230 234 235 230 218 213 219 232 244 230 220 235 243 243 243 241 242 248 249
299 297 297 296 295 293 290 287 282 276 267 262 258 255 251 248 247 243 236 235 238 238 235 228 224 226 234 249 256 242 227 237 243 246 247 249 252 255
301 297 295 293 293 292 290 286 280 275 269 265 261 256 252 248 247 245 245 242 241 242 241 241 237 237 245 253 257 252 244 238 241 246 250 253 255 255
300 298 296 294 292 290 289 285 280 273 266 260 260 257 252 248 248 247 247 246 245 247 252 255 246 240 238 244 251 258 259 253 248 248 249 249 252 253
299 298 295 294 291 288 286 283 278 274 269 264 260 257 253 251 251 251 249 248 252 253 255 257 253 247 246 247 254 259 261 262 261 259 255 251 251 255
Height
1457 1454 1450 1447 1444 1441 1438 1436 1432 1423 1415 1417 1418 1416 1414 1411 1408 1408 1406 1406 1406 1406 1407 1408 1409 1412 1415 1418 1422 1427 1431 1435 1439 1442 1445 1448 1451 1454
1447 1443 1440 1437 1434 1431 1428 1425 1422 1417 1406 1402 1406 1406 1404 1401 1400 1398 1397 1396 1395 1395 1396 1397 1398 1400 1403 1406 1410 1414 1418 1423 1427 1431 1435 1438 1441 1444
1437 1433 1429 1427 1423 1420 1417 1414 1411 1408 1400 1390 1394 1395 1394 1392 1390 1389 1388 1387 1385 1385 1385 1386 1388 1390 1392 1395 1399 1402 1407 1411 1415 1419 1423 1427 1431 1434
1426 1423 1419 1416 1412 1410 1407 1403 1400 1398 1393 1384 1381 1383 1383 1382 1381 1379 1378 1377 1376 1375 1375 1376 1377 1379 1382 1384 1388 1391 1395 1399 1403 1407 1412 1416 1420 1424
1415 1411 1407 1405 1401 1398 1396 1392 1389 1387 1384 1378 1371 1372 1372 1372 1371 1369 1368 1367 1365 1365 1365 1365 1366 1368 1370 1373 1376 1380 1383 1387 1391 1395 1400 1404 1408 1412
1403 1399 1395 1392 1389 1387 1384 1381 1379 1376 1374 1370 1364 1362 1362 1362 1361 1359 1358 1357 1356 1356 1355 1355 1356 1357 1359 1362 1365 1368 1372 1376 1380 1384 1388 1392 1397 1401
1391 1388 1384 1381 1378 1376 1373 1370 1368 1365 1363 1359 1355 1353 1352 1352 1351 1350 1349 1348 1347 1347 1346 1346 1347 1347 1348 1350 1353 1357 1361 1364 1368 1373 1377 1381 1386 1390
1381 1377 1374 1371 1367 1364 1362 1360 1359 1355 1352 1350 1346 1343 1342 1343 1342 1341 1340 1339 1338 1339 1338 1337 1338 1337 1338 1340 1342 1345 1349 1353 1357 1361 1366 1370 1374 1379
1372 1367 1364 1360 1358 1354 1351 1349 1347 1345 1343 1341 1336 1333 1333 1333 1333 1331 1330 1329 1329 1331 1331 1329 1330 1329 1330 1331 1333 1336 1339 1342 1347 1351 1355 1359 1364 1368
1363 1359 1355 1351 1348 1345 1341 1338 1335 1333 1332 1330 1327 1324 1324 1323 1323 1322 1321 1321 1321 1322 1323 1322 1322 1323 1323 1323 1325 1327 1329 1333 1336 1340 1345 1349 1353 1358
1355 1351 1347 1343 1339 1337 1333 1329 1326 1323 1321 1319 1317 1315 1314 1314 1314 1313 1312 1312 1311 1312 1314 1314 1315 1316 1316 1316 1317 1319 1321 1324 1327 1331 1335 1339 1344 1348
1347 1342 1339 1335 1331 1328 1325 1321 1317 1314 1312 1309 1308 1306 1305 1304 1305 1304 1304 1304 1303 1304 1304 1306 1307 1310 1310 1310 1311 1312 1314 1317 1320 1323 1327 1331 1335 1339
1339 1334 1330 1327 1323 1320 1317 1313 1309 1306 1303 1301 1298 1297 1296 1295 1295 1295 1296 1296 1296 1296 1298 1299 1301 1303 1304 1305 1305 1307 1308 1310 1313 1315 1318 1322 1326 1329
1331 1326 1322 1318 1314 1311 1307 1304 1301 1298 1295 1293 1291 1289 1288 1287 1287 1287 1287 1287 1288 1290 1291 1292 1294 1296 1298 1299 1300 1301 1303 1304 1306 1308 1311 1313 1316 1319
1324 1319 1314 1310 1306 1301 1298 1295 1293 1290 1287 1285 1283 1282 1281 1281 1280 1280 1280 1280 1281 1282 1283 1285 1287 1289 1291 1293 1294 1296 1297 1298 1299 1301 1303 1305 1307 1310
1316 1311 1306 1302 1297 1293 1290 1287 1284 1282 1280 1278 1276 1275 1275 1274 1274 1273 1274 1274 1274 1275 1276 1278 1280 1283 1284 1286 1288 1289 1290 1291 1291 1293 1295 1296 1298 1300
1309 1303 1299 1294 1290 1286 1283 1280 1278 1275 1274 1272 1271 1269 1269 1268 1268 1268 1268 1268 1269 1269 1270 1272 1274 1275 1277 1279 1280 1281 1282 1283 1284 1286 1286 1287 1288 1289
1302 1297 1292 1288 1284 1280 1277 1274 1272 1270 1268 1267 1265 1264 1264 1263 1263 1263 1263 1263 1264 1264 1265 1266 1268 1269 1270 1270 1272 1272 1273 1274 1275 1276 1277 1277 1276 1278
1296 1291 1287 1283 1279 1275 1272 1269 1267 1265 1263 1262 1261 1260 1259 1259 1258 1258 1258 1258 1258 1259 1260 1260 1261 1262 1263 1262 1261 1263 1264 1265 1266 1266 1266 1266 1265 1266
1290 1285 1281 1277 1274 1270 1267 1265 1262 1260 1259 1257 1256 1255 1255 1254 1254 1253 1253 1253 1253 1253 1253 1254 1254 1254 1254 1255 1254 1254 1255 1255 1256 1255 1255 1255 1254 1254
1284 1280 1276 1272 1269 1266 1263 1260 1258 1256 1254 1253 1252 1251 1250 1249 1249 1248 1248 1247 1247 1247 1246 1246 1246 1247 1247 1247 1245 1242 1244 1245 1245 1245 1245 1244 1242 1241
1279 1275 1271 1267 1264 1261 1258 1256 1254 1252 1250 1249 1248 1247 1246 1245 1244 1243 1242 1242 1241 1240 1240 1239 1239 1239 1239 1238 1235 1234 1233 1233 1233 1232 1232 1231 1230 1226
1273 1269 1265 1262 1259 1256 1253 1251 1249 1248 1246 1244 1243 1242 1241 1240 1238 1237 1236 1236 1235 1234 1233 1232 1231 1231 1230 1228 1226 1224 1222 1221 1221 1219 1217 1216 1216 1214